Weather History for Glen Ullin Rgnl, Glen Ullin,, ND

Change the Weather History Date:

Monday, July 7, 2014

  Actual Average (KDIK) Record (KDIK)
Temperature  
Mean Temperature 64 °F 68 °F  
Max Temperature 73 °F 82 °F 109 °F (1981)
Min Temperature 55 °F 54 °F 42 °F (1922)
Degree Days  
Heating Degree Days 1 1  
Month to date heating degree days 13  
Since 1 June heating degree days 150  
Since 1 July heating degree days 13  
Cooling Degree Days 0 4  
Month to date cooling degree days 28  
Year to date cooling degree days 92  
Since 1 June cooling degree days 82  
Growing Degree Days 14 (Base 50)    
Moisture  
Dew Point 56 °F    
Average Humidity 80    
Maximum Humidity 100    
Minimum Humidity 57    
Precipitation  
Precipitation 0.00 in 0.10 in 2.10 in (2004)
Month to date precipitation 0.65  
Year to date precipitation 8.96  
Sea Level Pressure  
Sea Level Pressure 29.90 in    
Wind  
Wind Speed 7 mph (NW)    
Max Wind Speed 21 mph    
Max Gust Speed 37 mph    
Visibility 9 miles    
Events Rain , Thunderstorm    
T = Trace of Precipitation, MM = Missing Value Source: NWS Daily Summary

Daily Weather History Graph

Daily Weather History Graph

Search for Another Location

Airport:

Trip Planner

Search our weather history database for the weather conditions in past years. The results will help you decide how hot, cold, wet, or windy it might be!

Date:

Astronomy

Jul. 07, 2014 Rise Set
Actual Time 5:01 AM MDT 8:43 PM MDT
Civil Twilight 4:22 AM MDT 9:21 PM MDT
Nautical Twilight 3:30 AM MDT 10:13 PM MDT
Astronomical Twilight 2:17 AM MDT 11:25 PM MDT
Moon 3:38 PM MDT (7/7) 1:07 AM MDT (7/7)
Length of Visible Light 16h 59m
Length of Day
15h 41m
Waxing Gibbous, 73% of the Moon is Illuminated
Jul 7
Waxing Gibbous
Jul 12
Full
Jul 18
Last Quarter
Jul 26
New
Aug 3
First Quarter

Hourly Weather History & Observations

Time (MDT) Temp. Dew Point Humidity Pressure Visibility Wind Dir Wind Speed Gust Speed Precip Events Conditions
12:15 AM 62.6 °F 59.0 °F 88% 29.86 in 10.0 mi Calm Calm - N/A   Mostly Cloudy
12:35 AM 62.6 °F 59.0 °F 88% 29.85 in 10.0 mi Calm Calm - N/A   Scattered Clouds
12:55 AM 62.6 °F 59.0 °F 88% 29.85 in 10.0 mi NE 4.6 mph - N/A   Clear
1:15 AM 62.6 °F 59.0 °F 88% 29.87 in 10.0 mi NNE 8.1 mph - N/A   Partly Cloudy
1:35 AM 62.6 °F 59.0 °F 88% 29.87 in 10.0 mi North 4.6 mph - N/A   Clear
1:55 AM 60.8 °F 59.0 °F 94% 29.86 in 10.0 mi Calm Calm - N/A   Clear
2:15 AM 59.0 °F 57.2 °F 94% 29.85 in 10.0 mi Calm Calm - N/A   Clear
2:35 AM 59.0 °F 57.2 °F 94% 29.85 in 10.0 mi Calm Calm - N/A   Clear
2:55 AM 59.0 °F 57.2 °F 94% 29.84 in 8.0 mi Calm Calm - N/A   Clear
3:15 AM 59.0 °F 57.2 °F 94% 29.84 in 10.0 mi Calm Calm - N/A   Clear
3:35 AM 57.2 °F 55.4 °F 94% 29.85 in 10.0 mi North 4.6 mph - N/A   Clear
3:55 AM 57.2 °F 55.4 °F 94% 29.85 in 10.0 mi Variable 4.6 mph - N/A   Clear
4:15 AM 57.2 °F 57.2 °F 100% 29.85 in 10.0 mi Calm Calm - N/A   Clear
4:35 AM 57.2 °F 55.4 °F 94% 29.84 in 10.0 mi Calm Calm - N/A   Clear
4:55 AM 57.2 °F 55.4 °F 94% 29.84 in 10.0 mi Calm Calm - N/A   Clear
5:15 AM 55.4 °F 53.6 °F 94% 29.85 in 7.0 mi SW 3.5 mph - N/A   Clear
5:35 AM 57.2 °F 55.4 °F 94% 29.85 in 7.0 mi Calm Calm - N/A   Clear
5:55 AM 57.2 °F 55.4 °F 94% 29.85 in 5.0 mi Calm Calm - N/A   Clear
6:15 AM 59.0 °F 57.2 °F 94% 29.85 in 5.0 mi West 6.9 mph - N/A   Clear
6:35 AM 60.8 °F 57.2 °F 88% 29.85 in 6.0 mi WNW 8.1 mph - N/A   Clear
6:55 AM 60.8 °F 59.0 °F 94% 29.85 in 7.0 mi West 5.8 mph - N/A   Clear
7:15 AM 62.6 °F 59.0 °F 88% 29.86 in 8.0 mi WNW 8.1 mph - N/A   Clear
7:35 AM 64.4 °F 60.8 °F 88% 29.85 in 10.0 mi NW 6.9 mph - N/A   Clear
7:55 AM 66.2 °F 60.8 °F 83% 29.86 in 10.0 mi WNW 6.9 mph - N/A   Clear
8:15 AM 66.2 °F 60.8 °F 83% 29.85 in 10.0 mi NNW 10.4 mph - N/A   Clear
8:35 AM 66.2 °F 59.0 °F 78% 29.86 in 10.0 mi North 10.4 mph - N/A   Clear
8:55 AM 68.0 °F 57.2 °F 68% 29.88 in 10.0 mi North 17.3 mph - N/A   Scattered Clouds
9:15 AM 66.2 °F 55.4 °F 68% 29.89 in 10.0 mi NNW 13.8 mph 20.7 mph N/A   Scattered Clouds
9:35 AM 66.2 °F 57.2 °F 73% 29.92 in 10.0 mi NW 17.3 mph - N/A   Partly Cloudy
9:55 AM 64.4 °F 55.4 °F 73% 29.90 in 10.0 mi NNW 9.2 mph - N/A   Scattered Clouds
10:15 AM 64.4 °F 55.4 °F 73% 29.93 in 10.0 mi NW 12.7 mph - N/A   Scattered Clouds
10:35 AM 64.4 °F 57.2 °F 77% 29.93 in 9.0 mi NW 17.3 mph 24.2 mph N/A   Clear
10:55 AM 62.6 °F 57.2 °F 82% 29.93 in 9.0 mi WNW 13.8 mph 20.7 mph N/A   Light Drizzle
11:15 AM 64.4 °F 57.2 °F 77% 29.93 in 10.0 mi NW 15.0 mph 21.9 mph N/A   Clear
11:35 AM 64.4 °F 57.2 °F 77% 29.91 in 10.0 mi NW 10.4 mph 18.4 mph N/A   Partly Cloudy
11:55 AM 66.2 °F 55.4 °F 68% 29.93 in 10.0 mi NW 16.1 mph - N/A   Mostly Cloudy
12:15 PM 64.4 °F 55.4 °F 73% 29.94 in 10.0 mi NW 20.7 mph - N/A   Overcast
12:35 PM 64.4 °F 55.4 °F 73% 29.93 in 10.0 mi WNW 17.3 mph 24.2 mph N/A   Overcast
12:55 PM 68.0 °F 59.0 °F 73% 29.93 in 10.0 mi WNW 16.1 mph - N/A   Overcast
1:15 PM 62.6 °F 57.2 °F 82% 29.94 in 2.5 mi WNW 15.0 mph 24.2 mph N/A Rain Heavy Rain
1:35 PM 66.2 °F 59.0 °F 78% 29.94 in 10.0 mi NW 17.3 mph 24.2 mph N/A   Mostly Cloudy
1:55 PM 68.0 °F 60.8 °F 78% 29.94 in 10.0 mi NW 16.1 mph 23.0 mph N/A   Mostly Cloudy
2:35 PM 69.8 °F 57.2 °F 64% 29.93 in 10.0 mi NW 16.1 mph 24.2 mph N/A   Scattered Clouds
2:55 PM 69.8 °F 55.4 °F 60% 29.93 in 10.0 mi NW 15.0 mph 23.0 mph N/A   Partly Cloudy
3:15 PM 71.6 °F 55.4 °F 57% 29.93 in 10.0 mi NW 15.0 mph - N/A   Clear
3:35 PM 71.6 °F 55.4 °F 57% 29.93 in 10.0 mi NW 15.0 mph 21.9 mph N/A   Partly Cloudy
3:55 PM 73.4 °F 57.2 °F 57% 29.92 in 10.0 mi WNW 12.7 mph 23.0 mph N/A   Partly Cloudy
4:15 PM 71.6 °F 55.4 °F 57% 29.90 in 10.0 mi WNW 13.8 mph 20.7 mph N/A   Partly Cloudy
4:35 PM 71.6 °F 55.4 °F 57% 29.91 in 10.0 mi West 19.6 mph - N/A   Mostly Cloudy
4:55 PM 62.6 °F 57.2 °F 82% 29.93 in 0.2 mi NNW 13.8 mph 36.8 mph N/A Rain , Thunderstorm Heavy Thunderstorms and Rain
5:15 PM 66.2 °F 60.8 °F 83% 29.92 in 10.0 mi WNW 16.1 mph 23.0 mph N/A Thunderstorm Scattered Clouds
5:35 PM 68.0 °F 59.0 °F 73% 29.92 in 10.0 mi NW 15.0 mph 21.9 mph N/A Thunderstorm Clear
5:55 PM 66.2 °F 57.2 °F 73% 29.92 in 10.0 mi WNW 10.4 mph 17.3 mph N/A   Clear
6:15 PM 68.0 °F 57.2 °F 68% 29.93 in 10.0 mi WNW 9.2 mph 15.0 mph N/A   Partly Cloudy
6:35 PM 69.8 °F 59.0 °F 68% 29.92 in 10.0 mi WNW 8.1 mph - N/A   Partly Cloudy
6:55 PM 68.0 °F 53.6 °F 60% 29.92 in 10.0 mi NW 18.4 mph - N/A   Clear
7:15 PM 68.0 °F 53.6 °F 60% 29.93 in 10.0 mi NW 15.0 mph - N/A   Partly Cloudy
7:35 PM 68.0 °F 53.6 °F 60% 29.93 in 10.0 mi NW 15.0 mph - N/A   Scattered Clouds
7:55 PM 64.4 °F 53.6 °F 68% 29.94 in 10.0 mi NW 11.5 mph 19.6 mph N/A   Partly Cloudy
8:15 PM 64.4 °F 53.6 °F 68% 29.94 in 10.0 mi NW 11.5 mph 17.3 mph N/A   Clear
8:35 PM 62.6 °F 53.6 °F 72% 29.94 in 10.0 mi NW 9.2 mph - N/A   Clear
8:55 PM 59.0 °F 55.4 °F 88% 29.95 in 10.0 mi NW 5.8 mph - N/A   Clear
9:15 PM 57.2 °F 53.6 °F 88% 29.96 in 10.0 mi West 5.8 mph - N/A   Clear
9:35 PM 57.2 °F 53.6 °F 88% 29.96 in 9.0 mi West 6.9 mph - N/A   Scattered Clouds
9:55 PM 55.4 °F 53.6 °F 94% 29.96 in 10.0 mi West 6.9 mph - N/A   Clear
10:15 PM 57.2 °F 53.6 °F 88% 29.96 in 10.0 mi West 8.1 mph - N/A   Clear
10:35 PM 57.2 °F 55.4 °F 94% 29.97 in 10.0 mi West 6.9 mph - N/A   Scattered Clouds
10:55 PM 57.2 °F 53.6 °F 88% 29.97 in 10.0 mi WNW 9.2 mph - N/A   Scattered Clouds
11:15 PM 57.2 °F 53.6 °F 88% 29.97 in 10.0 mi WNW 8.1 mph - N/A   Clear
11:35 PM 55.4 °F 51.8 °F 88% 29.97 in 10.0 mi West 6.9 mph - N/A   Clear
11:55 PM 55.4 °F 51.8 °F 88% 29.97 in 10.0 mi WNW 9.2 mph - N/A   Clear